Dallas/Ft Worth, TX

9:34 AM CDT on April 23, 2017 (GMT -0500)
Dallas-Fort Worth International

Weather History for KDFW - April, 2012

Change the Weather History Date:

Friday, April 27, 2012

  Actual Average Record
Temperature  
Mean Temperature 79 °F 69 °F  
Max Temperature 89 °F 79 °F 92 °F (1987)
Min Temperature 68 °F 58 °F 44 °F (1920)
Degree Days  
Heating Degree Days 0 1  
Month to date heating degree days 8 80  
Since 1 July heating degree days 1777 2273  
Cooling Degree Days 14 5  
Month to date cooling degree days 137 84  
Year to date cooling degree days 240 123  
Growing Degree Days 28 (Base 50)    
Moisture  
Dew Point 63 °F    
Average Humidity 65    
Maximum Humidity 90    
Minimum Humidity 39    
Precipitation  
Precipitation 0.00 in 0.13 in 2.69 in (1914)
Month to date precipitation 4.24 2.68  
Year to date precipitation 18.04 10.96  
Snow  
Snow 0.00 in 0.00 in 0.00 in ()
Month to date snowfall 0.0 0.0  
Since 1 July snowfall 0.3 1.6  
Snow Depth 0.00 in    
Sea Level Pressure  
Sea Level Pressure 29.72 in    
Wind  
Wind Speed 18 mph (South)    
Max Wind Speed 29 mph    
Max Gust Speed 36 mph    
Visibility 10 miles    
Events      
T = Trace of Precipitation, MM = Missing Value Source: NWS Daily Summary

Daily Weather History Graph

Daily Weather History Graph

Search for Another Location

Airport or City:

Trip Planner

Search our weather history database for the weather conditions in past years. The results will help you decide how hot, cold, wet, or windy it might be!

Date:

Astronomy

Apr. 27, 2012 Rise Set
Actual Time 6:44 AM CDT 8:07 PM CDT
Civil Twilight 6:18 AM CDT 8:33 PM CDT
Nautical Twilight 5:47 AM CDT 9:04 PM CDT
Astronomical Twilight 5:14 AM CDT 9:37 PM CDT
Moon 11:27 AM CDT (4/27) 12:50 AM CDT (4/27)
Length of Visible Light 14h 15m
Length of Day
13h 23m
Waxing Crescent, 33% of the Moon is Illuminated
Apr 27
Waxing Crescent
Apr 29
First Quarter
May 5
Full
May 12
Last Quarter
May 20
New

Hourly Weather History & Observations

Time (CDT) Temp. Heat Index Dew Point Humidity Pressure Visibility Wind Dir Wind Speed Gust Speed Precip Events Conditions
12:53 AM 75.9 °F - 66.9 °F 74% 29.73 in 10.0 mi SSE 16.1 mph 25.3 mph N/A   Mostly Cloudy
1:53 AM 73.9 °F - 66.9 °F 79% 29.73 in 10.0 mi South 18.4 mph 23.0 mph N/A   Mostly Cloudy
2:53 AM 72.0 °F - 66.0 °F 81% 29.73 in 10.0 mi South 16.1 mph - N/A   Scattered Clouds
3:53 AM 71.1 °F - 66.0 °F 84% 29.72 in 10.0 mi SSE 11.5 mph - N/A   Scattered Clouds
4:53 AM 70.0 °F - 66.0 °F 87% 29.71 in 10.0 mi SSE 12.7 mph 21.9 mph N/A   Mostly Cloudy
5:53 AM 68.0 °F - 64.0 °F 87% 29.72 in 10.0 mi South 10.4 mph - N/A   Mostly Cloudy
6:53 AM 68.0 °F - 63.0 °F 84% 29.74 in 10.0 mi SSE 13.8 mph - N/A   Mostly Cloudy
7:53 AM 70.0 °F - 63.0 °F 78% 29.75 in 10.0 mi SSE 15.0 mph 20.7 mph N/A   Mostly Cloudy
8:53 AM 70.0 °F - 64.0 °F 81% 29.80 in 10.0 mi SSW 10.4 mph - N/A   Mostly Cloudy
9:53 AM 73.0 °F - 63.0 °F 71% 29.79 in 10.0 mi South 16.1 mph 20.7 mph N/A   Mostly Cloudy
10:53 AM 77.0 °F - 62.1 °F 60% 29.75 in 10.0 mi South 21.9 mph 31.1 mph N/A   Scattered Clouds
11:53 AM 82.0 °F 82.4 °F 60.1 °F 47% 29.76 in 10.0 mi South 21.9 mph 29.9 mph N/A   Partly Cloudy
12:53 PM 84.9 °F 83.9 °F 57.0 °F 38% 29.74 in 10.0 mi SSW 27.6 mph 33.4 mph N/A   Partly Cloudy
1:53 PM 86.0 °F 85.7 °F 60.1 °F 41% 29.72 in 10.0 mi South 20.7 mph 27.6 mph N/A   Clear
2:53 PM 87.1 °F 86.7 °F 60.1 °F 40% 29.71 in 10.0 mi South 24.2 mph 29.9 mph N/A   Clear
3:53 PM 88.0 °F 87.6 °F 60.1 °F 39% 29.69 in 10.0 mi South 25.3 mph 34.5 mph N/A   Clear
4:53 PM 88.0 °F 87.1 °F 59.0 °F 37% 29.68 in 10.0 mi South 23.0 mph 32.2 mph N/A   Clear
5:53 PM 87.1 °F 86.7 °F 60.1 °F 40% 29.67 in 10.0 mi South 18.4 mph 29.9 mph N/A   Clear
6:53 PM 84.9 °F 84.8 °F 60.1 °F 43% 29.66 in 10.0 mi South 21.9 mph 33.4 mph N/A   Clear
7:53 PM 82.9 °F 83.3 °F 61.0 °F 47% 29.66 in 10.0 mi South 15.0 mph - N/A   Clear
8:53 PM 81.0 °F 82.2 °F 63.0 °F 54% 29.68 in 10.0 mi SSE 16.1 mph 26.5 mph N/A   Clear
9:53 PM 80.1 °F 81.5 °F 63.0 °F 56% 29.70 in 10.0 mi South 17.3 mph 29.9 mph N/A   Clear
10:53 PM 78.1 °F - 64.0 °F 62% 29.71 in 10.0 mi South 21.9 mph 28.8 mph N/A   Clear
11:53 PM 75.9 °F - 64.0 °F 67% 29.72 in 10.0 mi South 21.9 mph 32.2 mph N/A   Clear